Cosmos 1975 - Orbit

View from above orbital plane
View from above orbital plane
View from above satellite
View from above satellite

Ground track
Ground track

The orbit data is extracted from the following two-line orbital elements,

1 19573U 88093A   13139.50323928  .00002213  00000-0  18346-3 0  8714
2 19573 082.5236 341.4547 0015457 316.6042 043.3963 14.98307990336218
Epoch (UTC): 19 May 2013 12:04:39
Eccentricity: 0.0015457
inclination: 82.5236°
perigee height: 561 km
apogee height: 583 km
right ascension of ascending node: 341.4547°
argument of perigee: 316.6042°
revolutions per day: 14.98307990
mean anomaly at epoch: 43.3963°
orbit number at epoch: 33621

The dashed part of the orbit path shows where the satellite is in the earth's shadow,  

Developed and maintained by Chris Peat, Heavens-Above GmbH. Please read the updated FAQ before sending e-mail. Imprint. DLR